FENGYUN 1C DEB

Satellite information

Favourite Embed

Satellite Type and Status

DEBRISIN ORBIT

Key statistics

Satellite FENGYUN 1C DEB at a glance.

Uptime

9668

Days in orbit

Revolutions

≈ 14.2

Per day

Orbit

SSO

Sun Synchronous Orbit

Inclination

99.1

Latest

Satellite identification and parameters

Extended collection of information and parameters for FENGYUN 1C DEB.

Object identification

Identified? True

Debris? True

Object name: FENGYUN 1C DEB

International designator: 1999-025ARM

Object number (NORAD): 30703

Object ID (CCSDS): 30703

Country: PEOPLES REPUBLIC OF CHINA (PRC)

Current information (Y/N): Y

RCS size: SMALL

Orbital parameters

Period: 101.487 minutes

Inclination: 99.1382 deg

SMA: 7207.212 km

Apoapsis: 915.427 km

Periapsis: 742.726 km

RAAN: 283.0442 deg

Eccentricy: 0.01198108

Argument of periapsis: 65.5404 deg

Mean anomaly: 59.346 deg

Mean motion: 14.18900227 rev/day

Mean motion (dot): 0.00003912 rev/day2

B* drag term: 0.0017683703 1/REarth

Two-line elements (TLE)

Creation date: Oct. 27, 2025, 2:46 a.m.

Reference frame: TEME

Reference center: EARTH

Epoch: Oct. 26, 2025, 11:47 a.m. UTC

TLE line 0: 0 FENGYUN 1C DEB

TLE line 1: 1 30703U 99025ARM 25299.49117344 .00003912 00000-0 17684-2 0 9991

TLE line 2: 2 30703 99.1382 283.0442 0119811 65.5404 59.3460 14.18900227958705

Live tracking on map

Real-time ground track for satellite FENGYUN 1C DEB.

In-orbit conjunctions

A list of the most updated potential collisions computed for object FENGYUN 1C DEB.

Target Orbit TCA Probability of collision Miss distance Type
METEOR 2-17 DEB LEO 2025-10-20 03:53:58 0.0001054201 179.0 (m) DEBRIS
SL-3 R/B LEO 2025-10-07 16:33:32 0.003384515 13.0 (m) ROCKET BODY
FALCONSAT SSO 2024-09-03 19:06:08 0.0001746792 101.0 (m) PAYLOAD
COSMOS 1249 LEO 2024-08-18 07:11:18 0.0002626578 746.0 (m) PAYLOAD
DELTA 1 DEB SSO 2024-06-10 22:46:21 0.0001502213 402.0 (m) DEBRIS

Associated space launch

Chinese polar orbiting meteorological satellite

FENGYUN 1C DEB was lifted into orbit during the mission ‘Long March 4B | Feng Yun 1C’, on board a Long March 4B space rocket.

The launch took place on May 10, 1999, 1:33 a.m. from Launch Complex 7.

For more information about the launch, click the button.

Launch to space Long March 4B | Feng Yun 1C
Long March 4B | Feng Yun 1C

Agency: N/A

Status: Launch Successful

Launch date: May 10, 1999, 1:33 a.m. UTC

Rocket: Long March 4B

Launch pad: Launch Complex 7

Location: Taiyuan Satellite Launch Center, People's Republic of China

...

Latest news about this satellite

There are no fresh news available about this satellite. Check back as we update our databases every day.


Newsletter sign-up

Weekly statistics, charts and insights to help you stay on top of the space industry.